UAE86 LSZH-OMDB

Flight info

Callsign UAE86
Flight time 6h 14m
Altitude 37000
Route DEGES Z2 XEBIX L607 ELMEM N606 GIRIS DCT TISAX DCT NAXAV DCT GIKEB DCT ROSKA DCT ROTAR DCT AIOSA DCT LATAN DCT SALUN N705 MMA P751 DASUM Y234 FYM M872 BDB Y214 RAPMA DCT KUVSO DCT KATIT DCT PEKEM M628 RIGIL G783 ASPED Q308 KIPOK Q568 IMPED
Aircraft A388/J-SADE2E3FGHIJ3J4J5M1RWXY/LB1D1

Departure

Time 2026-05-05 16:18
Airport Zürich Airport (LSZH)

Arrival

Time 2026-05-05 22:32
Airport Dubai International Airport (OMDB)
Time Latitude Longitude Altitude Speed Heading
2026-05-05 15:58 47.46058 8.55337 1374 ft 0 kts
2026-05-05 16:06 47.46051 8.55335 1402 ft 3 kts
2026-05-05 16:06 47.46030 8.55332 1401 ft 3 kts
2026-05-05 16:06 47.46010 8.55329 1406 ft 2 kts
2026-05-05 16:07 47.45993 8.55326 1406 ft 3 kts 26°
2026-05-05 16:07 47.45981 8.55311 1409 ft 3 kts 78°
2026-05-05 16:07 47.45980 8.55284 1409 ft 3 kts 96°
2026-05-05 16:07 47.45982 8.55254 1406 ft 3 kts 96°
2026-05-05 16:08 47.45983 8.55236 1407 ft 1 kts 95°
2026-05-05 16:08 47.45984 8.55236 1406 ft 0 kts 95°
2026-05-05 16:08 47.45983 8.55236 1406 ft 0 kts 95°
2026-05-05 16:11 47.45983 8.55251 1406 ft 3 kts 95°
2026-05-05 16:11 47.45963 8.55522 1413 ft 7 kts 117°
2026-05-05 16:12 47.45926 8.55553 1414 ft 6 kts 172°
2026-05-05 16:12 47.45870 8.55605 1417 ft 6 kts 112°
2026-05-05 16:13 47.45845 8.55942 1415 ft 18 kts 96°
2026-05-05 16:13 47.45829 8.56159 1421 ft 24 kts 96°
2026-05-05 16:13 47.45811 8.56416 1422 ft 25 kts 96°
2026-05-05 16:14 47.45775 8.56921 1428 ft 14 kts 96°
2026-05-05 16:14 47.45764 8.56988 1429 ft 3 kts 120°
2026-05-05 16:15 47.45761 8.56995 1429 ft 0 kts 132°
2026-05-05 16:15 47.45760 8.56997 1430 ft 1 kts 132°
2026-05-05 16:16 47.45679 8.57029 1430 ft 8 kts 212°
2026-05-05 16:16 47.45667 8.56913 1428 ft 8 kts 278°
2026-05-05 16:17 47.45730 8.56054 1420 ft 110 kts 276°
2026-05-05 16:17 47.45830 8.54639 1406 ft 161 kts 276°
2026-05-05 16:18 47.46076 8.51366 2707 ft 158 kts 275°
2026-05-05 16:18 47.46200 8.49738 3251 ft 160 kts 275°
2026-05-05 16:18 47.45880 8.46304 3610 ft 187 kts 230°
2026-05-05 16:19 47.44884 8.44965 3738 ft 200 kts 221°
2026-05-05 16:19 47.43943 8.43409 3803 ft 218 kts 240°
2026-05-05 16:19 47.42888 8.39063 5054 ft 225 kts 253°
2026-05-05 16:20 47.41101 8.35371 6435 ft 231 kts 206°
2026-05-05 16:20 47.37961 8.35453 7820 ft 241 kts 151°
2026-05-05 16:21 47.36241 8.39661 9091 ft 263 kts 95°
2026-05-05 16:22 47.36811 8.48546 10177 ft 311 kts 86°
2026-05-05 16:22 47.37270 8.55256 10517 ft 346 kts 86°
2026-05-05 16:23 47.37734 8.62498 11403 ft 359 kts 86°
2026-05-05 16:23 47.37965 8.66131 11962 ft 363 kts 86°
2026-05-05 16:23 47.38436 8.73624 13072 ft 371 kts 87°
2026-05-05 16:24 47.38673 8.77428 13675 ft 371 kts 86°
2026-05-05 16:24 47.38907 8.81209 14313 ft 371 kts 86°
2026-05-05 16:24 47.39381 8.88876 15289 ft 379 kts 86°
2026-05-05 16:25 47.39618 8.92756 15811 ft 381 kts 86°
2026-05-05 16:25 47.40090 9.00553 16820 ft 387 kts 87°
2026-05-05 16:25 47.40328 9.04519 17313 ft 390 kts 87°
2026-05-05 16:26 47.40804 9.12537 18257 ft 395 kts 87°
2026-05-05 16:26 47.41329 9.20666 19046 ft 402 kts 83°
2026-05-05 16:27 47.41925 9.24721 19421 ft 406 kts 79°
2026-05-05 16:27 47.42562 9.28793 19864 ft 408 kts 79°
2026-05-05 16:27 47.43188 9.32880 20336 ft 408 kts 79°
2026-05-05 16:27 47.43803 9.36934 20742 ft 411 kts 80°
2026-05-05 16:28 47.44425 9.41057 21147 ft 413 kts 80°
2026-05-05 16:28 47.45049 9.45207 21561 ft 415 kts 80°
2026-05-05 16:28 47.45677 9.49385 21948 ft 418 kts 80°
2026-05-05 16:28 47.46306 9.53583 22342 ft 419 kts 80°
2026-05-05 16:29 47.46880 9.57807 22753 ft 420 kts 85°
2026-05-05 16:29 47.47101 9.62101 23138 ft 419 kts 92°
2026-05-05 16:29 47.46950 9.66406 23424 ft 421 kts 98°
2026-05-05 16:29 47.46692 9.70726 23751 ft 423 kts 98°
2026-05-05 16:30 47.46455 9.75006 24081 ft 425 kts 98°
2026-05-05 16:30 47.46219 9.79362 24404 ft 427 kts 98°
2026-05-05 16:30 47.45979 9.83739 24741 ft 428 kts 98°
2026-05-05 16:30 47.45736 9.88135 25072 ft 430 kts 98°
2026-05-05 16:31 47.45488 9.92558 25403 ft 433 kts 98°
2026-05-05 16:31 47.45236 9.96998 25757 ft 435 kts 98°
2026-05-05 16:31 47.44981 10.01465 26131 ft 437 kts 98°
2026-05-05 16:31 47.44724 10.05954 26429 ft 441 kts 98°
2026-05-05 16:32 47.44462 10.10447 26649 ft 446 kts 98°
2026-05-05 16:32 47.44196 10.15012 27068 ft 448 kts 98°
2026-05-05 16:32 47.43845 10.19582 27442 ft 448 kts 104°
2026-05-05 16:32 47.43231 10.24096 27791 ft 450 kts 105°
2026-05-05 16:33 47.42611 10.28648 28150 ft 453 kts 105°
2026-05-05 16:33 47.41998 10.33214 28574 ft 454 kts 105°
2026-05-05 16:33 47.41381 10.37803 28937 ft 458 kts 105°
2026-05-05 16:33 47.40527 10.42307 29282 ft 455 kts 116°
2026-05-05 16:34 47.39067 10.46424 29544 ft 452 kts 129°
2026-05-05 16:34 47.37092 10.49927 29784 ft 449 kts 141°
2026-05-05 16:34 47.34646 10.52726 30143 ft 443 kts 154°
2026-05-05 16:34 47.31940 10.54858 30502 ft 441 kts 158°
2026-05-05 16:35 47.29180 10.56858 30821 ft 443 kts 159°
2026-05-05 16:35 47.26417 10.58893 31125 ft 445 kts 158°
2026-05-05 16:35 47.23655 10.60990 31458 ft 448 kts 158°
2026-05-05 16:35 47.20897 10.63134 31823 ft 449 kts 157°
2026-05-05 16:36 47.18130 10.65300 32138 ft 451 kts 159°
2026-05-05 16:36 47.15313 10.67161 32493 ft 448 kts 165°
2026-05-05 16:36 47.12393 10.68746 32841 ft 449 kts 165°
2026-05-05 16:36 47.09454 10.70344 33202 ft 451 kts 165°
2026-05-05 16:37 47.06503 10.71957 33490 ft 454 kts 165°
2026-05-05 16:37 47.03541 10.73576 33688 ft 455 kts 165°
2026-05-05 16:37 47.00554 10.75215 33853 ft 461 kts 164°
2026-05-05 16:37 46.97552 10.76907 34164 ft 463 kts 163°
2026-05-05 16:38 46.94539 10.78622 34443 ft 466 kts 163°
2026-05-05 16:38 46.91558 10.80317 34734 ft 467 kts 163°
2026-05-05 16:38 46.88522 10.82035 35044 ft 468 kts 163°
2026-05-05 16:38 46.85483 10.83748 35431 ft 468 kts 164°
2026-05-05 16:39 46.82443 10.85458 35779 ft 468 kts 163°
2026-05-05 16:39 46.79470 10.87428 36139 ft 473 kts 156°
2026-05-05 16:39 46.76642 10.89929 36507 ft 478 kts 150°
2026-05-05 16:39 46.74012 10.92929 36864 ft 483 kts 143°
2026-05-05 16:40 46.69185 10.99813 36960 ft 488 kts 140°
2026-05-05 16:40 46.64345 11.06754 36967 ft 489 kts 140°
2026-05-05 16:41 46.59491 11.13666 36987 ft 488 kts 140°
2026-05-05 16:41 46.54626 11.20570 36967 ft 489 kts 140°
2026-05-05 16:42 46.49760 11.27459 36963 ft 488 kts 140°
2026-05-05 16:42 46.44780 11.33983 36939 ft 483 kts 147°
2026-05-05 16:43 46.39358 11.39725 36939 ft 483 kts 148°
2026-05-05 16:43 46.33933 11.45483 36973 ft 484 kts 148°
2026-05-05 16:44 46.28498 11.51249 36979 ft 486 kts 148°
2026-05-05 16:44 46.23073 11.56989 36990 ft 487 kts 148°
2026-05-05 16:45 46.17696 11.62965 37002 ft 491 kts 142°
2026-05-05 16:45 46.12841 11.69946 37013 ft 493 kts 139°
2026-05-05 16:46 46.08029 11.76989 37003 ft 493 kts 139°
2026-05-05 16:46 46.03200 11.84006 37019 ft 493 kts 139°
2026-05-05 16:47 45.98403 11.90955 37016 ft 493 kts 139°
2026-05-05 16:47 45.93573 11.97937 37001 ft 492 kts 139°
2026-05-05 16:48 45.88741 12.04900 37009 ft 492 kts 139°
2026-05-05 16:48 45.83901 12.11858 37010 ft 492 kts 139°
2026-05-05 16:49 45.79093 12.18752 37010 ft 492 kts 139°
2026-05-05 16:49 45.74248 12.25680 36993 ft 492 kts 139°
2026-05-05 16:50 45.69393 12.32604 36968 ft 493 kts 139°
2026-05-05 16:50 45.64532 12.39520 36983 ft 493 kts 139°
2026-05-05 16:51 45.59662 12.46432 36987 ft 494 kts 139°
2026-05-05 16:51 45.54806 12.53305 36996 ft 495 kts 139°
2026-05-05 16:52 45.49918 12.60205 37000 ft 495 kts 139°
2026-05-05 16:52 45.45015 12.67109 36990 ft 495 kts 139°
2026-05-05 16:53 45.40108 12.74001 36989 ft 496 kts 139°
2026-05-05 16:53 45.35227 12.80838 36977 ft 495 kts 139°
2026-05-05 16:54 45.30766 12.88346 36970 ft 501 kts 127°
2026-05-05 16:54 45.27170 12.96871 36960 ft 501 kts 128°
2026-05-05 16:55 45.22736 13.04396 36961 ft 496 kts 138°
2026-05-05 16:55 45.17862 13.11203 36980 ft 495 kts 140°
2026-05-05 16:56 45.12895 13.17986 36972 ft 496 kts 140°
2026-05-05 16:56 45.07934 13.24780 36962 ft 497 kts 140°
2026-05-05 16:57 45.02962 13.31584 36977 ft 498 kts 140°
2026-05-05 16:57 44.98007 13.38345 36968 ft 498 kts 140°
2026-05-05 16:58 44.93013 13.45139 36988 ft 499 kts 140°
2026-05-05 16:58 44.88014 13.51922 36996 ft 499 kts 140°
2026-05-05 16:59 44.83002 13.58707 37007 ft 499 kts 140°
2026-05-05 16:59 44.78019 13.65436 37016 ft 500 kts 140°
2026-05-05 17:00 44.72999 13.72197 37005 ft 500 kts 140°
2026-05-05 17:00 44.67968 13.78955 37007 ft 500 kts 140°
2026-05-05 17:01 44.62930 13.85705 37004 ft 501 kts 140°
2026-05-05 17:01 44.57885 13.92448 37002 ft 501 kts 140°
2026-05-05 17:02 44.52869 13.99136 37000 ft 501 kts 140°
2026-05-05 17:02 44.47816 14.05857 36978 ft 502 kts 140°
2026-05-05 17:03 44.42746 14.12581 36985 ft 502 kts 140°
2026-05-05 17:03 44.38521 14.18173 36991 ft 503 kts 140°
2026-05-05 17:04 44.32607 14.25982 36997 ft 504 kts 140°
2026-05-05 17:04 44.27497 14.32709 36993 ft 505 kts 140°
2026-05-05 17:05 44.23249 14.38288 36990 ft 506 kts 140°
2026-05-05 17:05 44.18119 14.45012 37001 ft 506 kts 140°
2026-05-05 17:06 44.12147 14.52818 37005 ft 507 kts 140°
2026-05-05 17:06 44.07864 14.58403 37014 ft 507 kts 140°
2026-05-05 17:07 44.02706 14.65113 36955 ft 510 kts 141°
2026-05-05 17:07 43.97479 14.71892 37005 ft 516 kts 141°
2026-05-05 17:08 43.91378 14.79789 37004 ft 516 kts 141°
2026-05-05 17:08 43.87016 14.85419 37004 ft 516 kts 141°
2026-05-05 17:09 43.81758 14.92191 37005 ft 516 kts 141°
2026-05-05 17:09 43.75663 15.00018 36996 ft 512 kts 141°
2026-05-05 17:10 43.71297 15.05612 36980 ft 510 kts 141°
2026-05-05 17:10 43.66134 15.12211 36970 ft 508 kts 141°
2026-05-05 17:11 43.60941 15.18831 37020 ft 511 kts 141°
2026-05-05 17:11 43.54816 15.26615 37025 ft 517 kts 141°
2026-05-05 17:12 43.50388 15.32235 37024 ft 515 kts 141°
2026-05-05 17:12 43.45159 15.38853 37020 ft 514 kts 141°
2026-05-05 17:13 43.39885 15.45511 37019 ft 515 kts 141°
2026-05-05 17:13 43.34605 15.52159 37011 ft 515 kts 141°
2026-05-05 17:14 43.29313 15.58808 37008 ft 516 kts 141°
2026-05-05 17:14 43.24043 15.65412 37010 ft 516 kts 141°
2026-05-05 17:15 43.18739 15.72040 37023 ft 516 kts 141°
2026-05-05 17:15 43.13430 15.78661 37048 ft 516 kts 141°
2026-05-05 17:16 43.08120 15.85267 37003 ft 516 kts 141°
2026-05-05 17:16 43.02831 15.91830 37003 ft 517 kts 141°
2026-05-05 17:17 42.97500 15.98428 37007 ft 517 kts 141°
2026-05-05 17:17 42.92159 16.05023 37027 ft 518 kts 141°
2026-05-05 17:18 42.86821 16.11599 37011 ft 517 kts 141°
2026-05-05 17:18 42.81514 16.18121 37006 ft 518 kts 141°
2026-05-05 17:19 42.76160 16.24683 37011 ft 518 kts 141°
2026-05-05 17:19 42.70799 16.31239 37013 ft 518 kts 141°
2026-05-05 17:20 42.65438 16.37779 37033 ft 518 kts 141°
2026-05-05 17:20 42.60105 16.44269 37008 ft 518 kts 141°
2026-05-05 17:21 42.54727 16.50798 37006 ft 519 kts 141°
2026-05-05 17:22 42.46644 16.60582 37019 ft 520 kts 141°
2026-05-05 17:22 42.41247 16.67095 37020 ft 520 kts 141°
2026-05-05 17:23 42.35839 16.73605 37014 ft 521 kts 141°
2026-05-05 17:23 42.30463 16.80062 37015 ft 521 kts 141°
2026-05-05 17:24 42.25035 16.86566 37024 ft 522 kts 141°
2026-05-05 17:24 42.19597 16.93065 37029 ft 522 kts 141°
2026-05-05 17:25 42.14193 16.99508 37015 ft 523 kts 142°
2026-05-05 17:25 42.08737 17.05999 37023 ft 524 kts 141°
2026-05-05 17:26 42.03271 17.12488 37029 ft 524 kts 141°
2026-05-05 17:26 41.97798 17.18976 37034 ft 525 kts 141°
2026-05-05 17:27 41.92079 17.25006 37029 ft 521 kts 150°
2026-05-05 17:27 41.85843 17.29716 37012 ft 517 kts 157°
2026-05-05 17:28 41.79436 17.34113 37023 ft 518 kts 157°
2026-05-05 17:28 41.73029 17.38548 37029 ft 519 kts 157°
2026-05-05 17:29 41.66617 17.42974 37014 ft 519 kts 156°
2026-05-05 17:29 41.60189 17.47398 37027 ft 520 kts 156°
2026-05-05 17:30 41.53798 17.51786 37035 ft 520 kts 156°
2026-05-05 17:30 41.47351 17.56202 37040 ft 521 kts 156°
2026-05-05 17:31 41.40894 17.60616 37042 ft 521 kts 156°
2026-05-05 17:31 41.34479 17.64991 37041 ft 521 kts 156°
2026-05-05 17:32 41.28027 17.69381 37042 ft 521 kts 157°
2026-05-05 17:32 41.21567 17.73767 37032 ft 521 kts 156°
2026-05-05 17:33 41.15114 17.78137 37045 ft 520 kts 156°
2026-05-05 17:33 41.08710 17.82466 37053 ft 520 kts 156°
2026-05-05 17:34 41.02272 17.86809 37045 ft 519 kts 156°
2026-05-05 17:34 40.95832 17.91142 37044 ft 519 kts 156°
2026-05-05 17:35 40.89396 17.95464 37038 ft 519 kts 156°
2026-05-05 17:35 40.82956 17.99778 37043 ft 519 kts 156°
2026-05-05 17:36 40.76555 18.04057 37044 ft 519 kts 156°
2026-05-05 17:36 40.70107 18.08357 37034 ft 519 kts 156°
2026-05-05 17:37 40.63652 18.12654 37037 ft 520 kts 156°
2026-05-05 17:37 40.57189 18.16947 37035 ft 521 kts 156°
2026-05-05 17:38 40.50770 18.21201 37060 ft 521 kts 156°
2026-05-05 17:38 40.44300 18.25479 37072 ft 520 kts 156°
2026-05-05 17:39 40.37829 18.29749 37074 ft 520 kts 156°
2026-05-05 17:39 40.31355 18.34011 37073 ft 520 kts 156°
2026-05-05 17:40 40.24928 18.38234 37078 ft 520 kts 156°
2026-05-05 17:40 40.18468 18.42470 37080 ft 520 kts 157°
2026-05-05 17:41 40.12003 18.46698 37078 ft 519 kts 157°
2026-05-05 17:41 40.05543 18.50916 37071 ft 519 kts 157°
2026-05-05 17:42 39.99091 18.55119 37085 ft 518 kts 157°
2026-05-05 17:42 39.92686 18.59282 37087 ft 518 kts 157°
2026-05-05 17:43 39.86241 18.63462 37083 ft 517 kts 157°
2026-05-05 17:43 39.79805 18.67628 37079 ft 517 kts 157°
2026-05-05 17:44 39.73363 18.71790 37084 ft 517 kts 157°
2026-05-05 17:44 39.66959 18.75917 37087 ft 517 kts 157°
2026-05-05 17:45 39.60506 18.80067 37088 ft 518 kts 157°
2026-05-05 17:45 39.54046 18.84213 37087 ft 518 kts 157°
2026-05-05 17:46 39.47580 18.88355 37092 ft 519 kts 157°
2026-05-05 17:46 39.41116 18.92487 37099 ft 519 kts 157°
2026-05-05 17:47 39.34681 18.96594 37101 ft 519 kts 157°
2026-05-05 17:47 39.28411 19.01256 37108 ft 523 kts 147°
2026-05-05 17:48 39.22823 19.07310 37104 ft 526 kts 141°
2026-05-05 17:48 39.17326 19.13529 37112 ft 526 kts 141°
2026-05-05 17:49 39.11863 19.19682 37104 ft 526 kts 141°
2026-05-05 17:49 39.06357 19.25873 37109 ft 526 kts 141°
2026-05-05 17:50 39.00847 19.32056 37113 ft 525 kts 141°
2026-05-05 17:50 38.95329 19.38229 37110 ft 525 kts 141°
2026-05-05 17:51 38.89816 19.44382 37106 ft 525 kts 141°
2026-05-05 17:51 38.84327 19.50492 37103 ft 526 kts 141°
2026-05-05 17:52 38.78793 19.56641 37105 ft 526 kts 141°
2026-05-05 17:52 38.73263 19.62772 37116 ft 526 kts 141°
2026-05-05 17:53 38.67729 19.68894 37116 ft 526 kts 141°
2026-05-05 17:53 38.62224 19.74972 37117 ft 526 kts 141°
2026-05-05 17:54 38.56683 19.81076 37127 ft 526 kts 141°
2026-05-05 17:54 38.51137 19.87172 37119 ft 526 kts 141°
2026-05-05 17:55 38.45590 19.93258 37118 ft 526 kts 141°
2026-05-05 17:55 38.40036 19.99338 37121 ft 526 kts 141°
2026-05-05 17:56 38.34518 20.05365 37123 ft 526 kts 141°
2026-05-05 17:56 38.28968 20.11415 37125 ft 526 kts 141°
2026-05-05 17:57 38.23408 20.17464 37120 ft 526 kts 141°
2026-05-05 17:57 38.17844 20.23504 37124 ft 526 kts 141°
2026-05-05 17:58 38.12273 20.29539 37128 ft 526 kts 141°
2026-05-05 17:58 38.06702 20.35562 37130 ft 526 kts 141°
2026-05-05 17:59 38.01156 20.41545 37132 ft 527 kts 141°
2026-05-05 17:59 37.95572 20.47556 37131 ft 527 kts 141°
2026-05-05 18:00 37.89983 20.53561 37111 ft 528 kts 141°
2026-05-05 18:00 37.84378 20.59571 37117 ft 528 kts 141°
2026-05-05 18:01 37.78800 20.65539 37112 ft 529 kts 141°
2026-05-05 18:01 37.73181 20.71539 37113 ft 530 kts 141°
2026-05-05 18:02 37.67555 20.77534 37108 ft 529 kts 141°
2026-05-05 18:02 37.61917 20.83529 37097 ft 530 kts 141°
2026-05-05 18:03 37.56308 20.89481 37106 ft 531 kts 141°
2026-05-05 18:03 37.50654 20.95470 37115 ft 531 kts 141°
2026-05-05 18:04 37.44998 21.01447 37126 ft 531 kts 141°
2026-05-05 18:04 37.39332 21.07424 37121 ft 531 kts 141°
2026-05-05 18:05 37.33662 21.13392 37126 ft 531 kts 141°
2026-05-05 18:05 37.28023 21.19314 37125 ft 532 kts 141°
2026-05-05 18:06 37.22347 21.25265 37130 ft 532 kts 141°
2026-05-05 18:06 37.16660 21.31215 37133 ft 532 kts 141°
2026-05-05 18:07 37.10972 21.37153 37125 ft 532 kts 141°
2026-05-05 18:07 37.05283 21.43081 37125 ft 532 kts 141°
2026-05-05 18:08 36.99589 21.49002 37125 ft 532 kts 142°
2026-05-05 18:08 36.93937 21.54867 37130 ft 531 kts 142°
2026-05-05 18:09 36.88243 21.60764 37138 ft 531 kts 142°
2026-05-05 18:09 36.82552 21.66646 37122 ft 531 kts 142°
2026-05-05 18:10 36.76853 21.72526 37114 ft 532 kts 142°
2026-05-05 18:10 36.71184 21.78362 37118 ft 532 kts 142°
2026-05-05 18:11 36.65473 21.84229 37103 ft 533 kts 142°
2026-05-05 18:11 36.59742 21.90106 37112 ft 534 kts 142°
2026-05-05 18:12 36.53998 21.95985 37105 ft 535 kts 142°
2026-05-05 18:12 36.48249 22.01857 37121 ft 536 kts 142°
2026-05-05 18:13 36.42523 22.07693 37118 ft 536 kts 142°
2026-05-05 18:13 36.36752 22.13564 37138 ft 536 kts 142°
2026-05-05 18:14 36.30973 22.19431 37113 ft 537 kts 142°
2026-05-05 18:14 36.25187 22.25294 37112 ft 538 kts 142°
2026-05-05 18:15 36.19388 22.31159 37120 ft 538 kts 142°
2026-05-05 18:15 36.13627 22.36973 37107 ft 538 kts 142°
2026-05-05 18:16 36.07823 22.42819 37113 ft 538 kts 142°
2026-05-05 18:16 36.02019 22.48654 37108 ft 538 kts 142°
2026-05-05 18:17 35.96207 22.54487 37107 ft 538 kts 142°
2026-05-05 18:17 35.90390 22.60312 37107 ft 539 kts 142°
2026-05-05 18:18 35.84607 22.66092 37107 ft 539 kts 142°
2026-05-05 18:18 35.78780 22.71904 37104 ft 539 kts 142°
2026-05-05 18:19 35.72944 22.77715 37116 ft 539 kts 142°
2026-05-05 18:19 35.67107 22.83515 37102 ft 540 kts 143°
2026-05-05 18:20 35.61294 22.89280 37102 ft 541 kts 143°
2026-05-05 18:20 35.55440 22.95074 37113 ft 541 kts 143°
2026-05-05 18:21 35.49575 23.00868 37124 ft 541 kts 143°
2026-05-05 18:21 35.43702 23.06659 37120 ft 542 kts 143°
2026-05-05 18:22 35.37821 23.12447 37110 ft 542 kts 143°
2026-05-05 18:22 35.31973 23.18191 37113 ft 543 kts 143°
2026-05-05 18:23 35.26070 23.23977 37122 ft 544 kts 143°
2026-05-05 18:23 35.20165 23.29755 37121 ft 544 kts 143°
2026-05-05 18:24 35.14244 23.35538 37128 ft 544 kts 143°
2026-05-05 18:24 35.08361 23.41272 37118 ft 545 kts 143°
2026-05-05 18:25 35.02435 23.47036 37123 ft 546 kts 143°
2026-05-05 18:25 34.96494 23.52805 37120 ft 546 kts 143°
2026-05-05 18:26 34.90549 23.58567 37121 ft 546 kts 143°
2026-05-05 18:26 34.84599 23.64323 37119 ft 546 kts 143°
2026-05-05 18:27 34.78687 23.70030 37112 ft 546 kts 143°
2026-05-05 18:27 34.72738 23.75763 37127 ft 546 kts 143°
2026-05-05 18:28 34.63794 23.84361 37115 ft 546 kts 143°
2026-05-05 18:28 34.57829 23.90082 37116 ft 546 kts 143°
2026-05-05 18:29 34.51904 23.95755 37110 ft 546 kts 143°
2026-05-05 18:29 34.45936 24.01456 37109 ft 546 kts 143°
2026-05-05 18:30 34.39972 24.07145 37117 ft 546 kts 143°
2026-05-05 18:30 34.33996 24.12833 37118 ft 546 kts 143°
2026-05-05 18:31 34.28019 24.18513 37118 ft 546 kts 143°
2026-05-05 18:31 34.22047 24.24178 37118 ft 546 kts 143°
2026-05-05 18:32 34.16112 24.29801 37111 ft 546 kts 143°
2026-05-05 18:32 34.10133 24.35457 37116 ft 546 kts 143°
2026-05-05 18:33 34.04153 24.41103 37127 ft 546 kts 143°
2026-05-05 18:33 33.98195 24.46758 37106 ft 545 kts 141°
2026-05-05 18:34 33.92586 24.52819 37117 ft 545 kts 138°
2026-05-05 18:34 33.86984 24.58972 37117 ft 545 kts 139°
2026-05-05 18:35 33.81343 24.65060 37114 ft 545 kts 139°
2026-05-05 18:35 33.75681 24.71126 37116 ft 545 kts 139°
2026-05-05 18:36 33.70058 24.77136 37115 ft 545 kts 139°
2026-05-05 18:36 33.64385 24.83191 37124 ft 545 kts 139°
2026-05-05 18:37 33.58710 24.89236 37118 ft 545 kts 140°
2026-05-05 18:37 33.53031 24.95275 37119 ft 546 kts 140°
2026-05-05 18:38 33.47346 25.01308 37129 ft 546 kts 140°
2026-05-05 18:38 33.41698 25.07292 37128 ft 546 kts 140°
2026-05-05 18:39 33.36018 25.13299 37127 ft 545 kts 140°
2026-05-05 18:39 33.30332 25.19301 37121 ft 545 kts 140°
2026-05-05 18:40 33.24646 25.25292 37123 ft 545 kts 140°
2026-05-05 18:40 33.18995 25.31236 37120 ft 545 kts 140°
2026-05-05 18:41 33.13312 25.37202 37122 ft 542 kts 140°
2026-05-05 18:41 33.07653 25.43133 37127 ft 542 kts 140°
2026-05-05 18:42 33.01990 25.49057 37099 ft 542 kts 140°
2026-05-05 18:42 32.96353 25.54944 37116 ft 543 kts 140°
2026-05-05 18:43 32.90665 25.60873 37124 ft 544 kts 140°
2026-05-05 18:43 32.84967 25.66803 37142 ft 544 kts 140°
2026-05-05 18:44 32.79267 25.72724 37139 ft 544 kts 140°
2026-05-05 18:44 32.73604 25.78595 37137 ft 544 kts 140°
2026-05-05 18:45 32.67908 25.84492 37132 ft 543 kts 140°
2026-05-05 18:45 32.62224 25.90365 37131 ft 542 kts 140°
2026-05-05 18:46 32.56534 25.96235 37127 ft 542 kts 140°
2026-05-05 18:46 32.50889 26.02047 37132 ft 541 kts 140°
2026-05-05 18:47 32.45211 26.07883 37125 ft 540 kts 140°
2026-05-05 18:47 32.39541 26.13701 37118 ft 539 kts 140°
2026-05-05 18:48 32.33871 26.19509 37116 ft 539 kts 140°
2026-05-05 18:48 32.28200 26.25309 37117 ft 539 kts 140°
2026-05-05 18:49 32.22566 26.31060 37126 ft 538 kts 141°
2026-05-05 18:49 32.16895 26.36839 37126 ft 538 kts 141°
2026-05-05 18:50 32.11224 26.42608 37127 ft 538 kts 141°
2026-05-05 18:50 32.05554 26.48368 37118 ft 537 kts 141°
2026-05-05 18:51 31.99926 26.54073 37114 ft 538 kts 141°
2026-05-05 18:51 31.94256 26.59813 37121 ft 537 kts 141°
2026-05-05 18:52 31.88588 26.65540 37126 ft 537 kts 141°
2026-05-05 18:52 31.82922 26.71256 37147 ft 536 kts 141°
2026-05-05 18:53 31.77265 26.76953 37149 ft 536 kts 141°
2026-05-05 18:53 31.71639 26.82610 37133 ft 536 kts 141°
2026-05-05 18:54 31.65969 26.88302 37141 ft 536 kts 142°
2026-05-05 18:54 31.60295 26.93988 37151 ft 536 kts 142°
2026-05-05 18:55 31.54618 26.99667 37151 ft 536 kts 142°
2026-05-05 18:55 31.48944 27.05333 37156 ft 536 kts 142°
2026-05-05 18:56 31.43300 27.10961 37140 ft 536 kts 142°
2026-05-05 18:56 31.37615 27.16623 37142 ft 537 kts 142°
2026-05-05 18:57 31.32135 27.22562 37125 ft 539 kts 133°
2026-05-05 18:57 31.27673 27.29624 37128 ft 541 kts 124°
2026-05-05 18:58 31.23498 27.36875 37136 ft 541 kts 125°
2026-05-05 18:58 31.19272 27.44158 37146 ft 542 kts 125°
2026-05-05 18:59 31.15044 27.51432 37160 ft 542 kts 125°
2026-05-05 18:59 31.10787 27.58688 37164 ft 541 kts 126°
2026-05-05 19:00 31.06511 27.65829 37156 ft 541 kts 126°
2026-05-05 19:00 31.02211 27.73013 37141 ft 540 kts 126°
2026-05-05 19:01 30.97917 27.80185 37138 ft 539 kts 126°
2026-05-05 19:01 30.93622 27.87348 37137 ft 539 kts 126°
2026-05-05 19:02 30.89325 27.94501 37135 ft 539 kts 126°
2026-05-05 19:02 30.85058 28.01592 37137 ft 539 kts 126°
2026-05-05 19:03 30.80752 28.08734 37135 ft 539 kts 127°
2026-05-05 19:03 30.76442 28.15870 37138 ft 539 kts 127°
2026-05-05 19:04 30.72127 28.23001 37144 ft 539 kts 127°
2026-05-05 19:04 30.67841 28.30073 37138 ft 539 kts 127°
2026-05-05 19:05 30.63516 28.37195 37139 ft 538 kts 127°
2026-05-05 19:05 30.59195 28.44300 37137 ft 538 kts 128°
2026-05-05 19:06 30.54877 28.51384 37132 ft 538 kts 128°
2026-05-05 19:06 30.50552 28.58469 37127 ft 538 kts 128°
2026-05-05 19:07 30.46250 28.65504 37131 ft 538 kts 128°
2026-05-05 19:07 30.41923 28.72568 37132 ft 538 kts 128°
2026-05-05 19:08 30.37590 28.79627 37122 ft 537 kts 128°
2026-05-05 19:08 30.33256 28.86676 37121 ft 537 kts 128°
2026-05-05 19:09 30.28947 28.93672 37120 ft 537 kts 128°
2026-05-05 19:09 30.24608 29.00707 37124 ft 537 kts 129°
2026-05-05 19:10 30.20273 29.07722 37126 ft 535 kts 129°
2026-05-05 19:10 30.15950 29.14720 37121 ft 534 kts 128°
2026-05-05 19:11 30.11666 29.21665 37115 ft 534 kts 128°
2026-05-05 19:11 30.07424 29.28695 37120 ft 534 kts 128°
2026-05-05 19:12 30.03193 29.35729 37112 ft 533 kts 128°
2026-05-05 19:12 29.98954 29.42739 37108 ft 532 kts 128°
2026-05-05 19:13 29.94710 29.49737 37103 ft 532 kts 128°
2026-05-05 19:13 29.90496 29.56674 37100 ft 532 kts 128°
2026-05-05 19:14 29.86245 29.63661 37104 ft 532 kts 129°
2026-05-05 19:14 29.81987 29.70645 37107 ft 533 kts 129°
2026-05-05 19:15 29.77724 29.77627 37107 ft 533 kts 129°
2026-05-05 19:15 29.73454 29.84609 37103 ft 533 kts 129°
2026-05-05 19:16 29.69215 29.91527 37112 ft 533 kts 129°
2026-05-05 19:16 29.64943 29.98489 37110 ft 533 kts 129°
2026-05-05 19:17 29.60667 30.05444 37111 ft 533 kts 129°
2026-05-05 19:17 29.56389 30.12391 37100 ft 532 kts 129°
2026-05-05 19:18 29.52141 30.19279 37108 ft 532 kts 129°
2026-05-05 19:18 29.47862 30.26203 37105 ft 531 kts 129°
2026-05-05 19:19 29.43582 30.33118 37100 ft 531 kts 129°
2026-05-05 19:19 29.39184 30.39904 37102 ft 526 kts 136°
2026-05-05 19:20 29.34177 30.45958 37097 ft 523 kts 139°
2026-05-05 19:20 29.29165 30.51932 37101 ft 523 kts 139°
2026-05-05 19:21 29.24121 30.57948 37088 ft 523 kts 139°
2026-05-05 19:21 29.19069 30.63958 37102 ft 524 kts 139°
2026-05-05 19:22 29.14013 30.69963 37107 ft 524 kts 139°
2026-05-05 19:22 29.08992 30.75918 37112 ft 524 kts 139°
2026-05-05 19:23 29.03926 30.81917 37084 ft 524 kts 139°
2026-05-05 19:23 28.98869 30.87897 37110 ft 523 kts 140°
2026-05-05 19:24 28.93811 30.93868 37110 ft 523 kts 140°
2026-05-05 19:24 28.88794 30.99784 37109 ft 522 kts 140°
2026-05-05 19:25 28.83740 31.05733 37112 ft 522 kts 140°
2026-05-05 19:25 28.78684 31.11675 37109 ft 522 kts 140°
2026-05-05 19:26 28.73628 31.17608 37105 ft 522 kts 140°
2026-05-05 19:26 28.68617 31.23500 37076 ft 522 kts 139°
2026-05-05 19:27 28.63754 31.29649 37105 ft 522 kts 137°
2026-05-05 19:27 28.58914 31.35815 37102 ft 522 kts 138°
2026-05-05 19:28 28.54048 31.41949 37083 ft 522 kts 138°
2026-05-05 19:28 28.49201 31.48032 37103 ft 523 kts 138°
2026-05-05 19:29 28.44316 31.54154 37102 ft 523 kts 139°
2026-05-05 19:29 28.39434 31.60262 37105 ft 523 kts 139°
2026-05-05 19:30 28.34545 31.66372 37106 ft 523 kts 139°
2026-05-05 19:30 28.29656 31.72472 37104 ft 521 kts 139°
2026-05-05 19:31 28.24803 31.78518 37102 ft 521 kts 139°
2026-05-05 19:31 28.19925 31.84587 37104 ft 521 kts 139°
2026-05-05 19:32 28.15039 31.90655 37110 ft 521 kts 139°
2026-05-05 19:32 28.10150 31.96719 37110 ft 521 kts 139°
2026-05-05 19:33 28.05314 32.02765 37104 ft 523 kts 136°
2026-05-05 19:33 28.01153 32.09618 37102 ft 534 kts 124°
2026-05-05 19:34 27.97627 32.17024 37103 ft 534 kts 124°
2026-05-05 19:35 27.92293 32.28088 37087 ft 534 kts 124°
2026-05-05 19:35 27.88754 32.35408 37057 ft 533 kts 124°
2026-05-05 19:36 27.85192 32.42765 37040 ft 534 kts 125°
2026-05-05 19:36 27.81623 32.50120 37041 ft 534 kts 125°
2026-05-05 19:37 27.78048 32.57477 37041 ft 534 kts 125°
2026-05-05 19:37 27.74496 32.64776 37036 ft 534 kts 125°
2026-05-05 19:38 27.70912 32.72127 37038 ft 535 kts 125°
2026-05-05 19:38 27.67319 32.79481 37036 ft 535 kts 125°
2026-05-05 19:39 27.63721 32.86834 37036 ft 535 kts 125°
2026-05-05 19:39 27.60125 32.94174 37023 ft 535 kts 126°
2026-05-05 19:40 27.56545 33.01464 37021 ft 535 kts 126°
2026-05-05 19:40 27.52936 33.08802 37036 ft 535 kts 126°
2026-05-05 19:41 27.49325 33.16132 37022 ft 535 kts 126°
2026-05-05 19:41 27.46321 33.22221 37033 ft 534 kts 126°
2026-05-05 19:42 27.42123 33.30714 37020 ft 534 kts 126°
2026-05-05 19:42 27.38510 33.38011 37011 ft 533 kts 126°
2026-05-05 19:43 27.34894 33.45299 36981 ft 533 kts 126°
2026-05-05 19:43 27.31304 33.52522 37000 ft 532 kts 126°
2026-05-05 19:44 27.27691 33.59779 37002 ft 533 kts 126°
2026-05-05 19:44 27.24068 33.67043 37005 ft 533 kts 126°
2026-05-05 19:45 27.21053 33.73080 36997 ft 533 kts 126°
2026-05-05 19:45 27.17034 33.81659 37022 ft 540 kts 119°
2026-05-05 19:46 27.14269 33.89514 37021 ft 541 kts 118°
2026-05-05 19:46 27.11951 33.96041 36994 ft 541 kts 118°
2026-05-05 19:47 27.09156 34.03883 36998 ft 541 kts 118°
2026-05-05 19:47 27.05900 34.12998 36991 ft 542 kts 118°
2026-05-05 19:48 27.03550 34.19564 36988 ft 542 kts 118°
2026-05-05 19:48 27.00757 34.27356 36977 ft 542 kts 118°
2026-05-05 19:49 26.97937 34.35202 36982 ft 543 kts 118°
2026-05-05 19:49 26.95112 34.43049 36984 ft 543 kts 118°
2026-05-05 19:50 26.92281 34.50896 36979 ft 543 kts 119°
2026-05-05 19:50 26.89467 34.58681 36978 ft 543 kts 119°
2026-05-05 19:51 26.86624 34.66526 36993 ft 544 kts 119°
2026-05-05 19:51 26.83776 34.74373 36983 ft 544 kts 119°
2026-05-05 19:52 26.80924 34.82215 36980 ft 544 kts 119°
2026-05-05 19:52 26.78086 34.90002 36980 ft 544 kts 120°
2026-05-05 19:53 26.75225 34.97838 36984 ft 544 kts 120°
2026-05-05 19:53 26.72366 35.05660 36969 ft 544 kts 120°
2026-05-05 19:54 26.69500 35.13485 36975 ft 544 kts 120°
2026-05-05 19:54 26.66648 35.21255 36975 ft 544 kts 120°
2026-05-05 19:55 26.63772 35.29076 36971 ft 544 kts 120°
2026-05-05 19:55 26.60891 35.36895 36968 ft 544 kts 120°
2026-05-05 19:56 26.58007 35.44705 36968 ft 544 kts 120°
2026-05-05 19:56 26.55099 35.52512 36955 ft 544 kts 121°
2026-05-05 19:57 26.52144 35.60222 36959 ft 544 kts 121°
2026-05-05 19:57 26.49166 35.67985 36959 ft 544 kts 121°
2026-05-05 19:58 26.46190 35.75752 36941 ft 544 kts 121°
2026-05-05 19:58 26.43216 35.83505 36956 ft 543 kts 121°
2026-05-05 19:59 26.40262 35.91190 36955 ft 543 kts 121°
2026-05-05 19:59 26.37279 35.98932 36955 ft 543 kts 121°
2026-05-05 20:00 26.34292 36.06673 36953 ft 543 kts 121°
2026-05-05 20:00 26.31300 36.14412 36955 ft 543 kts 121°
2026-05-05 20:01 26.28328 36.22084 36950 ft 543 kts 121°
2026-05-05 20:01 26.25329 36.29812 36934 ft 543 kts 121°
2026-05-05 20:02 26.22326 36.37536 36935 ft 543 kts 121°
2026-05-05 20:02 26.19317 36.45259 36935 ft 544 kts 121°
2026-05-05 20:03 26.16026 36.52706 36933 ft 536 kts 128°
2026-05-05 20:03 26.12433 36.59972 36946 ft 537 kts 127°
2026-05-05 20:04 26.08844 36.67263 36965 ft 537 kts 127°
2026-05-05 20:04 26.05246 36.74554 36947 ft 538 kts 127°
2026-05-05 20:05 26.01643 36.81840 36955 ft 537 kts 127°
2026-05-05 20:05 25.98062 36.89070 36949 ft 537 kts 127°
2026-05-05 20:06 25.94453 36.96343 36956 ft 537 kts 127°
2026-05-05 20:06 25.90844 37.03607 36953 ft 537 kts 127°
2026-05-05 20:07 25.87237 37.10852 36948 ft 536 kts 127°
2026-05-05 20:07 25.83649 37.18049 36950 ft 536 kts 127°
2026-05-05 20:08 25.80035 37.25288 36943 ft 536 kts 128°
2026-05-05 20:08 25.76427 37.32534 36944 ft 537 kts 127°
2026-05-05 20:09 25.72823 37.39778 36937 ft 536 kts 127°
2026-05-05 20:09 25.69238 37.46969 36950 ft 536 kts 127°
2026-05-05 20:10 25.65624 37.54203 36950 ft 536 kts 127°
2026-05-05 20:10 25.62009 37.61427 37004 ft 536 kts 127°
2026-05-05 20:11 25.58383 37.68658 36956 ft 538 kts 127°
2026-05-05 20:11 25.54748 37.75899 36958 ft 538 kts 127°
2026-05-05 20:12 25.51132 37.83093 36951 ft 538 kts 128°
2026-05-05 20:12 25.47490 37.90325 36948 ft 538 kts 128°
2026-05-05 20:13 25.43850 37.97541 36934 ft 537 kts 128°
2026-05-05 20:13 25.40212 38.04742 36928 ft 536 kts 128°
2026-05-05 20:14 25.36598 38.11885 36903 ft 536 kts 128°
2026-05-05 20:14 25.32949 38.19083 36923 ft 537 kts 128°
2026-05-05 20:15 25.29306 38.26265 36932 ft 535 kts 128°
2026-05-05 20:15 25.25664 38.33428 36929 ft 534 kts 128°
2026-05-05 20:16 25.22028 38.40568 36933 ft 533 kts 128°
2026-05-05 20:16 25.18417 38.47648 36928 ft 532 kts 128°
2026-05-05 20:17 25.14783 38.54764 36919 ft 532 kts 128°
2026-05-05 20:17 25.11143 38.61866 36905 ft 531 kts 128°
2026-05-05 20:18 25.07527 38.68913 36909 ft 531 kts 128°
2026-05-05 20:18 25.03879 38.76009 36930 ft 532 kts 128°
2026-05-05 20:19 25.00231 38.83099 36933 ft 532 kts 128°
2026-05-05 20:19 24.96568 38.90204 36921 ft 533 kts 129°
2026-05-05 20:20 24.92923 38.97261 36943 ft 534 kts 129°
2026-05-05 20:20 24.89242 39.04370 36964 ft 534 kts 129°
2026-05-05 20:21 24.85556 39.11481 36954 ft 534 kts 129°
2026-05-05 20:21 24.81869 39.18581 36958 ft 534 kts 129°
2026-05-05 20:22 24.78183 39.25673 36955 ft 534 kts 129°
2026-05-05 20:22 24.74517 39.32720 36963 ft 534 kts 129°
2026-05-05 20:23 24.70824 39.39804 36967 ft 534 kts 129°
2026-05-05 20:23 24.67122 39.46894 36972 ft 535 kts 129°
2026-05-05 20:24 24.63414 39.53985 36970 ft 535 kts 129°
2026-05-05 20:24 24.59725 39.61026 36990 ft 536 kts 129°
2026-05-05 20:25 24.56258 39.68312 36998 ft 547 kts 120°
2026-05-05 20:25 24.54197 39.76468 37002 ft 563 kts 105°
2026-05-05 20:26 24.53362 39.85056 37010 ft 565 kts 102°
2026-05-05 20:26 24.52545 39.93578 36988 ft 564 kts 102°
2026-05-05 20:27 24.51712 40.02145 36977 ft 564 kts 102°
2026-05-05 20:27 24.50881 40.10670 36973 ft 563 kts 102°
2026-05-05 20:28 24.50041 40.19234 36973 ft 562 kts 102°
2026-05-05 20:28 24.49207 40.27695 36958 ft 561 kts 102°
2026-05-05 20:29 24.48364 40.36198 36962 ft 560 kts 102°
2026-05-05 20:29 24.47517 40.44689 36962 ft 559 kts 102°
2026-05-05 20:30 24.46666 40.53169 36965 ft 558 kts 102°
2026-05-05 20:30 24.45812 40.61635 36965 ft 558 kts 102°
2026-05-05 20:31 24.44959 40.70027 36967 ft 557 kts 102°
2026-05-05 20:31 24.44094 40.78485 36965 ft 558 kts 102°
2026-05-05 20:32 24.43224 40.86947 36955 ft 558 kts 102°
2026-05-05 20:32 24.42348 40.95412 36965 ft 558 kts 102°
2026-05-05 20:33 24.41475 41.03817 36982 ft 558 kts 102°
2026-05-05 20:33 24.40590 41.12284 36980 ft 559 kts 102°
2026-05-05 20:34 24.39703 41.20744 36991 ft 558 kts 102°
2026-05-05 20:34 24.38813 41.29187 36991 ft 557 kts 102°
2026-05-05 20:35 24.37917 41.37637 36993 ft 557 kts 102°
2026-05-05 20:35 24.37026 41.45998 36995 ft 556 kts 102°
2026-05-05 20:36 24.36124 41.54415 36996 ft 555 kts 102°
2026-05-05 20:36 24.35218 41.62818 36991 ft 554 kts 102°
2026-05-05 20:37 24.34310 41.71208 36981 ft 554 kts 102°
2026-05-05 20:37 24.33400 41.79534 36964 ft 552 kts 103°
2026-05-05 20:38 24.31731 41.87658 36962 ft 543 kts 113°
2026-05-05 20:38 24.29621 41.95604 36964 ft 544 kts 113°
2026-05-05 20:39 24.27530 42.03570 36971 ft 543 kts 113°
2026-05-05 20:39 24.25433 42.11530 36975 ft 544 kts 113°
2026-05-05 20:40 24.23342 42.19438 36974 ft 544 kts 113°
2026-05-05 20:40 24.21234 42.27392 36996 ft 543 kts 112°
2026-05-05 20:41 24.19123 42.35341 36997 ft 543 kts 112°
2026-05-05 20:41 24.17008 42.43284 36985 ft 543 kts 112°
2026-05-05 20:42 24.14908 42.51155 36985 ft 542 kts 112°
2026-05-05 20:42 24.12790 42.59074 36987 ft 542 kts 112°
2026-05-05 20:43 24.10669 42.66984 36990 ft 541 kts 112°
2026-05-05 20:43 24.08546 42.74887 36989 ft 541 kts 112°
2026-05-05 20:44 24.06423 42.82775 36995 ft 541 kts 112°
2026-05-05 20:44 24.04307 42.90616 36996 ft 541 kts 112°
2026-05-05 20:45 24.01105 43.02447 36988 ft 541 kts 112°
2026-05-05 20:45 23.98966 43.10330 36993 ft 541 kts 112°
2026-05-05 20:46 23.96837 43.18159 36992 ft 541 kts 112°
2026-05-05 20:46 23.94692 43.26031 36986 ft 541 kts 112°
2026-05-05 20:47 23.92540 43.33910 36993 ft 541 kts 112°
2026-05-05 20:47 23.90382 43.41793 36995 ft 541 kts 112°
2026-05-05 20:48 23.88234 43.49621 36988 ft 541 kts 112°
2026-05-05 20:48 23.86070 43.57495 36977 ft 541 kts 112°
2026-05-05 20:49 23.83903 43.65358 36971 ft 540 kts 112°
2026-05-05 20:49 23.81735 43.73209 36968 ft 540 kts 112°
2026-05-05 20:50 23.79580 43.80998 36955 ft 539 kts 112°
2026-05-05 20:50 23.77602 43.88902 36951 ft 543 kts 105°
2026-05-05 20:51 23.76785 43.97143 36940 ft 548 kts 98°
2026-05-05 20:51 23.76183 44.05426 36930 ft 547 kts 99°
2026-05-05 20:52 23.75563 44.13694 36932 ft 546 kts 99°
2026-05-05 20:52 23.74945 44.21903 36930 ft 547 kts 99°
2026-05-05 20:53 23.74318 44.30178 36938 ft 547 kts 99°
2026-05-05 20:53 23.73687 44.38453 36937 ft 547 kts 99°
2026-05-05 20:54 23.73055 44.46672 36943 ft 547 kts 99°
2026-05-05 20:54 23.72416 44.54930 36946 ft 547 kts 99°
2026-05-05 20:55 23.71772 44.63193 36934 ft 546 kts 99°
2026-05-05 20:55 23.71124 44.71446 36940 ft 546 kts 99°
2026-05-05 20:56 23.70477 44.79636 36937 ft 545 kts 99°
2026-05-05 20:56 23.69822 44.87876 36931 ft 545 kts 99°
2026-05-05 20:57 23.69162 44.96112 36944 ft 545 kts 99°
2026-05-05 20:57 23.68497 45.04345 36907 ft 545 kts 99°
2026-05-05 20:58 23.67828 45.12575 36930 ft 544 kts 99°
2026-05-05 20:58 23.67160 45.20745 36929 ft 544 kts 99°
2026-05-05 20:59 23.66484 45.28972 36915 ft 544 kts 99°
2026-05-05 20:59 23.65803 45.37197 36908 ft 544 kts 99°
2026-05-05 21:00 23.65117 45.45422 36899 ft 545 kts 99°
2026-05-05 21:00 23.64432 45.53590 36895 ft 545 kts 99°
2026-05-05 21:01 23.63738 45.61814 36911 ft 544 kts 99°
2026-05-05 21:01 23.63040 45.70023 36898 ft 543 kts 99°
2026-05-05 21:02 23.62340 45.78202 36875 ft 542 kts 99°
2026-05-05 21:02 23.61641 45.86317 36883 ft 541 kts 99°
2026-05-05 21:03 23.60935 45.94472 36883 ft 540 kts 99°
2026-05-05 21:03 23.60225 46.02619 36874 ft 540 kts 99°
2026-05-05 21:04 23.59510 46.10765 36882 ft 540 kts 99°
2026-05-05 21:04 23.58796 46.18859 36883 ft 540 kts 99°
2026-05-05 21:05 23.58073 46.27008 36893 ft 541 kts 99°
2026-05-05 21:05 23.57344 46.35170 36900 ft 541 kts 99°
2026-05-05 21:06 23.56611 46.43335 36902 ft 541 kts 99°
2026-05-05 21:06 23.55877 46.51449 36902 ft 542 kts 99°
2026-05-05 21:07 23.55134 46.59617 36871 ft 541 kts 99°
2026-05-05 21:07 23.54390 46.67760 36891 ft 539 kts 99°
2026-05-05 21:08 23.53643 46.75888 36878 ft 538 kts 99°
2026-05-05 21:08 23.52893 46.83992 36864 ft 537 kts 99°
2026-05-05 21:09 23.52145 46.92039 36852 ft 537 kts 99°
2026-05-05 21:09 23.51388 47.00130 36837 ft 537 kts 99°
2026-05-05 21:10 23.50627 47.08225 36829 ft 537 kts 99°
2026-05-05 21:10 23.49862 47.16307 36865 ft 536 kts 99°
2026-05-05 21:11 23.49093 47.24383 36834 ft 536 kts 99°
2026-05-05 21:11 23.48327 47.32397 36840 ft 535 kts 99°
2026-05-05 21:12 23.47552 47.40455 36823 ft 534 kts 99°
2026-05-05 21:12 23.46774 47.48503 36820 ft 534 kts 99°
2026-05-05 21:13 23.45993 47.56537 36816 ft 534 kts 99°
2026-05-05 21:13 23.45213 47.64523 36814 ft 534 kts 99°
2026-05-05 21:14 23.44424 47.72556 36831 ft 533 kts 99°
2026-05-05 21:14 23.43632 47.80575 36808 ft 532 kts 99°
2026-05-05 21:15 23.42838 47.88574 36828 ft 531 kts 99°
2026-05-05 21:15 23.42047 47.96503 36819 ft 530 kts 99°
2026-05-05 21:16 23.41248 48.04474 36796 ft 529 kts 99°
2026-05-05 21:16 23.40446 48.12425 36800 ft 529 kts 99°
2026-05-05 21:17 23.39641 48.20375 36773 ft 528 kts 99°
2026-05-05 21:17 23.38837 48.28264 36793 ft 528 kts 99°
2026-05-05 21:18 23.38135 48.36215 36778 ft 529 kts 95°
2026-05-05 21:18 23.37836 48.44215 36793 ft 529 kts 95°
2026-05-05 21:19 23.37514 48.52223 36781 ft 530 kts 95°
2026-05-05 21:19 23.37188 48.60189 36774 ft 531 kts 95°
2026-05-05 21:20 23.36855 48.68211 36769 ft 532 kts 95°
2026-05-05 21:20 23.36517 48.76269 36787 ft 533 kts 95°
2026-05-05 21:21 23.36175 48.84326 36785 ft 534 kts 95°
2026-05-05 21:21 23.35830 48.92345 36788 ft 534 kts 95°
2026-05-05 21:22 23.35479 49.00414 36792 ft 534 kts 95°
2026-05-05 21:22 23.34948 49.08454 36795 ft 531 kts 101°
2026-05-05 21:23 23.33785 49.16386 36775 ft 531 kts 101°
2026-05-05 21:23 23.32658 49.24275 36779 ft 531 kts 101°
2026-05-05 21:24 23.31521 49.32209 36775 ft 531 kts 101°
2026-05-05 21:24 23.30372 49.40159 36764 ft 532 kts 101°
2026-05-05 21:25 23.29218 49.48108 36777 ft 531 kts 101°
2026-05-05 21:25 23.28072 49.55981 36788 ft 530 kts 101°
2026-05-05 21:26 23.26917 49.63879 36782 ft 529 kts 101°
2026-05-05 21:26 23.25759 49.71772 36776 ft 528 kts 101°
2026-05-05 21:27 23.24599 49.79653 36767 ft 527 kts 102°
2026-05-05 21:27 23.23444 49.87470 36762 ft 527 kts 102°
2026-05-05 21:28 23.22278 49.95332 36768 ft 526 kts 102°
2026-05-05 21:28 23.21109 50.03184 36772 ft 525 kts 101°
2026-05-05 21:29 23.19940 50.11016 36769 ft 525 kts 102°
2026-05-05 21:29 23.18766 50.18847 36768 ft 525 kts 102°
2026-05-05 21:30 23.17597 50.26622 36775 ft 525 kts 102°
2026-05-05 21:30 23.16416 50.34447 36773 ft 525 kts 102°
2026-05-05 21:31 23.15231 50.42273 36766 ft 525 kts 102°
2026-05-05 21:31 23.14044 50.50092 36774 ft 525 kts 102°
2026-05-05 21:32 23.12858 50.57868 36785 ft 525 kts 102°
2026-05-05 21:32 23.11662 50.65685 36779 ft 524 kts 102°
2026-05-05 21:33 23.10463 50.73496 36775 ft 524 kts 102°
2026-05-05 21:33 23.09261 50.81301 36775 ft 524 kts 102°
2026-05-05 21:34 23.08065 50.89046 36773 ft 523 kts 102°
2026-05-05 21:34 23.06857 50.96833 36772 ft 523 kts 102°
2026-05-05 21:35 23.05645 51.04627 36769 ft 523 kts 102°
2026-05-05 21:35 23.04428 51.12422 36769 ft 523 kts 102°
2026-05-05 21:36 23.03218 51.20151 36778 ft 523 kts 102°
2026-05-05 21:36 23.01996 51.27926 36774 ft 522 kts 102°
2026-05-05 21:37 23.00772 51.35694 36774 ft 522 kts 102°
2026-05-05 21:37 22.99544 51.43457 36768 ft 522 kts 102°
2026-05-05 21:38 22.98323 51.51158 36767 ft 522 kts 102°
2026-05-05 21:38 22.97087 51.58917 36765 ft 522 kts 102°
2026-05-05 21:39 22.95848 51.66677 36767 ft 522 kts 102°
2026-05-05 21:39 22.94605 51.74437 36769 ft 522 kts 102°
2026-05-05 21:40 22.93366 51.82145 36768 ft 522 kts 102°
2026-05-05 21:40 22.92114 51.89910 36768 ft 523 kts 102°
2026-05-05 21:41 22.90858 51.97677 36771 ft 523 kts 102°
2026-05-05 21:41 22.89599 52.05437 36771 ft 523 kts 102°
2026-05-05 21:42 22.88333 52.13212 36764 ft 524 kts 102°
2026-05-05 21:42 22.87072 52.20938 36767 ft 524 kts 102°
2026-05-05 21:43 22.85798 52.28715 36777 ft 523 kts 102°
2026-05-05 21:43 22.84521 52.36485 36775 ft 523 kts 102°
2026-05-05 21:44 22.83252 52.44201 36770 ft 523 kts 102°
2026-05-05 21:44 22.82355 52.52022 36768 ft 525 kts 93°
2026-05-05 21:45 22.82183 52.59939 36768 ft 525 kts 93°
2026-05-05 21:45 22.81983 52.67853 36768 ft 525 kts 93°
2026-05-05 21:46 22.81775 52.75768 36767 ft 525 kts 93°
2026-05-05 21:46 22.81564 52.83633 36766 ft 526 kts 93°
2026-05-05 21:47 22.81349 52.91554 36764 ft 526 kts 93°
2026-05-05 21:47 22.81129 52.99468 36767 ft 526 kts 93°
2026-05-05 21:48 22.80906 53.07385 36773 ft 525 kts 93°
2026-05-05 21:48 22.80680 53.15248 36772 ft 525 kts 93°
2026-05-05 21:49 22.80449 53.23146 36766 ft 525 kts 93°
2026-05-05 21:49 22.80214 53.31050 36759 ft 525 kts 94°
2026-05-05 21:50 22.79975 53.38955 36769 ft 525 kts 94°
2026-05-05 21:50 22.79735 53.46810 36772 ft 525 kts 94°
2026-05-05 21:51 22.79488 53.54719 36766 ft 525 kts 94°
2026-05-05 21:51 22.79237 53.62629 36770 ft 525 kts 94°
2026-05-05 21:52 22.78854 53.74486 36771 ft 525 kts 94°
2026-05-05 21:53 22.78595 53.82347 36765 ft 526 kts 94°
2026-05-05 21:53 22.78331 53.90264 36779 ft 525 kts 94°
2026-05-05 21:54 22.78233 53.98178 36781 ft 526 kts 87°
2026-05-05 21:54 22.79340 54.06017 36777 ft 527 kts 78°
2026-05-05 21:55 22.80929 54.13717 36768 ft 527 kts 78°
2026-05-05 21:55 22.82498 54.21475 36773 ft 527 kts 78°
2026-05-05 21:56 22.84065 54.29221 36773 ft 527 kts 78°
2026-05-05 21:56 22.85631 54.36973 36771 ft 526 kts 78°
2026-05-05 21:57 22.87194 54.44729 36765 ft 526 kts 78°
2026-05-05 21:57 22.88742 54.52432 36767 ft 526 kts 78°
2026-05-05 21:58 22.90298 54.60194 36772 ft 527 kts 78°
2026-05-05 21:58 22.91851 54.67960 36771 ft 527 kts 78°
2026-05-05 21:59 22.93400 54.75729 36766 ft 527 kts 78°
2026-05-05 21:59 22.94936 54.83452 36765 ft 527 kts 78°
2026-05-05 22:00 22.96478 54.91226 36766 ft 527 kts 78°
2026-05-05 22:00 22.98018 54.99012 36772 ft 528 kts 78°
2026-05-05 22:01 22.99555 55.06802 36779 ft 528 kts 78°
2026-05-05 22:01 23.01383 55.14454 36779 ft 528 kts 67°
2026-05-05 22:01 23.03057 55.17985 36784 ft 527 kts 56°
2026-05-05 22:02 23.05280 55.21141 36783 ft 526 kts 45°
2026-05-05 22:02 23.11009 55.25947 36781 ft 520 kts 25°
2026-05-05 22:02 23.14322 55.27476 36796 ft 516 kts 14°
2026-05-05 22:03 23.17767 55.28507 36784 ft 514 kts 12°
2026-05-05 22:03 23.24635 55.30519 36784 ft 515 kts 12°
2026-05-05 22:04 23.31550 55.32563 36789 ft 515 kts 12°
2026-05-05 22:04 23.38472 55.34608 36791 ft 515 kts 12°
2026-05-05 22:05 23.45386 55.36653 36791 ft 516 kts 12°
2026-05-05 22:05 23.52268 55.38688 36797 ft 516 kts 12°
2026-05-05 22:06 23.59200 55.40739 36799 ft 516 kts 12°
2026-05-05 22:06 23.66116 55.42788 36725 ft 513 kts 12°
2026-05-05 22:06 23.69551 55.43808 36486 ft 509 kts 12°
2026-05-05 22:07 23.72959 55.44820 35974 ft 507 kts 12°
2026-05-05 22:07 23.76372 55.45834 35120 ft 512 kts 12°
2026-05-05 22:07 23.79786 55.46846 34158 ft 518 kts 12°
2026-05-05 22:07 23.83290 55.47886 33054 ft 525 kts 12°
2026-05-05 22:08 23.86809 55.48932 32218 ft 524 kts 12°
2026-05-05 22:08 23.90304 55.49972 31663 ft 517 kts 12°
2026-05-05 22:08 23.93736 55.50994 31356 ft 504 kts 12°
2026-05-05 22:08 23.97068 55.52016 31115 ft 493 kts 15°
2026-05-05 22:09 24.00220 55.53438 30667 ft 490 kts 25°
2026-05-05 22:09 24.03120 55.55392 30119 ft 490 kts 34°
2026-05-05 22:09 24.05684 55.57766 29527 ft 488 kts 40°
2026-05-05 22:09 24.08175 55.60263 29006 ft 483 kts 40°
2026-05-05 22:10 24.10650 55.62715 28452 ft 477 kts 40°
2026-05-05 22:10 24.13101 55.65136 27931 ft 472 kts 40°
2026-05-05 22:10 24.15523 55.67531 27387 ft 467 kts 40°
2026-05-05 22:10 24.17920 55.69905 26858 ft 462 kts 40°
2026-05-05 22:11 24.20291 55.72256 26332 ft 458 kts 40°
2026-05-05 22:11 24.22633 55.74582 25816 ft 453 kts 40°
2026-05-05 22:11 24.24958 55.76892 25304 ft 449 kts 40°
2026-05-05 22:11 24.27231 55.79152 24789 ft 445 kts 40°
2026-05-05 22:12 24.29514 55.81423 24280 ft 441 kts 40°
2026-05-05 22:12 24.31775 55.83673 23774 ft 438 kts 40°
2026-05-05 22:12 24.34021 55.85908 23230 ft 434 kts 41°
2026-05-05 22:12 24.36245 55.88125 22700 ft 429 kts 41°
2026-05-05 22:13 24.38441 55.90314 22189 ft 424 kts 41°
2026-05-05 22:13 24.40611 55.92477 21710 ft 419 kts 41°
2026-05-05 22:13 24.42754 55.94614 21214 ft 414 kts 41°
2026-05-05 22:13 24.44842 55.96696 20721 ft 409 kts 41°
2026-05-05 22:14 24.46939 55.98789 20236 ft 405 kts 41°
2026-05-05 22:14 24.49014 56.00860 19734 ft 401 kts 41°
2026-05-05 22:14 24.51068 56.02912 19248 ft 397 kts 41°
2026-05-05 22:14 24.53103 56.04946 18763 ft 394 kts 41°
2026-05-05 22:15 24.55121 56.06965 18280 ft 391 kts 41°
2026-05-05 22:15 24.57117 56.08968 17751 ft 387 kts 41°
2026-05-05 22:15 24.59171 56.10845 17275 ft 381 kts 32°
2026-05-05 22:15 24.61503 56.12169 16795 ft 375 kts 19°
2026-05-05 22:16 24.63975 56.12877 16325 ft 370 kts
2026-05-05 22:16 24.66505 56.13310 15866 ft 366 kts
2026-05-05 22:16 24.69003 56.13764 15402 ft 363 kts
2026-05-05 22:16 24.71485 56.14225 14944 ft 360 kts
2026-05-05 22:17 24.73947 56.14682 14488 ft 358 kts
2026-05-05 22:17 24.76417 56.15137 14214 ft 363 kts
2026-05-05 22:17 24.78946 56.15244 13934 ft 362 kts 353°
2026-05-05 22:17 24.81333 56.14675 13841 ft 350 kts 340°
2026-05-05 22:18 24.83520 56.13630 13715 ft 336 kts 334°
2026-05-05 22:18 24.85613 56.12591 13610 ft 324 kts 335°
2026-05-05 22:18 24.87637 56.11601 13505 ft 312 kts 335°
2026-05-05 22:18 24.89489 56.10431 12944 ft 310 kts 317°
2026-05-05 22:19 24.90921 56.08619 12064 ft 316 kts 304°
2026-05-05 22:19 24.92145 56.06659 11794 ft 302 kts 303°
2026-05-05 22:19 24.93298 56.04804 11638 ft 285 kts 304°
2026-05-05 22:19 24.94408 56.03074 11428 ft 270 kts 304°
2026-05-05 22:20 24.95507 56.01409 10964 ft 267 kts 305°
2026-05-05 22:20 24.96595 55.99785 10457 ft 266 kts 305°
2026-05-05 22:20 24.97699 55.98155 9963 ft 265 kts 305°
2026-05-05 22:20 24.98803 55.96530 9451 ft 264 kts 305°
2026-05-05 22:21 24.99899 55.94915 8966 ft 261 kts 305°
2026-05-05 22:21 25.00997 55.93297 8230 ft 268 kts 305°
2026-05-05 22:21 25.02141 55.91611 7376 ft 281 kts 305°
2026-05-05 22:21 25.03309 55.89857 6702 ft 284 kts 299°
2026-05-05 22:22 25.03961 55.87842 6115 ft 279 kts 273°
2026-05-05 22:22 25.03721 55.85753 5531 ft 276 kts 247°
2026-05-05 22:22 25.02668 55.84047 4963 ft 274 kts 219°
2026-05-05 22:22 25.01093 55.83012 4762 ft 254 kts 212°
2026-05-05 22:23 24.99888 55.81732 4633 ft 232 kts 241°
2026-05-05 22:23 24.99488 55.80088 4541 ft 218 kts 273°
2026-05-05 22:23 24.99917 55.78586 4338 ft 199 kts 305°
2026-05-05 22:23 25.00923 55.77591 3740 ft 194 kts 327°
2026-05-05 22:24 25.02055 55.76762 3044 ft 196 kts 324°
2026-05-05 22:24 25.03087 55.75774 2589 ft 197 kts 317°
2026-05-05 22:24 25.03997 55.74651 2411 ft 201 kts 308°
2026-05-05 22:24 25.04796 55.73379 2247 ft 203 kts 304°
2026-05-05 22:25 25.05539 55.72062 2040 ft 202 kts 302°
2026-05-05 22:25 25.06272 55.70735 2008 ft 202 kts 302°
2026-05-05 22:25 25.07008 55.69410 2010 ft 202 kts 304°
2026-05-05 22:25 25.07766 55.68110 2009 ft 202 kts 306°
2026-05-05 22:26 25.08513 55.66795 2014 ft 203 kts 304°
2026-05-05 22:26 25.09248 55.65465 2011 ft 204 kts 304°
2026-05-05 22:26 25.09988 55.64127 2010 ft 204 kts 304°
2026-05-05 22:26 25.10718 55.62807 2009 ft 204 kts 304°
2026-05-05 22:27 25.11456 55.61473 2006 ft 204 kts 304°
2026-05-05 22:27 25.12195 55.60137 2004 ft 204 kts 304°
2026-05-05 22:27 25.12934 55.58798 2002 ft 204 kts 304°
2026-05-05 22:27 25.13672 55.57464 2005 ft 204 kts 304°
2026-05-05 22:28 25.14411 55.56128 2003 ft 204 kts 304°
2026-05-05 22:28 25.15150 55.54790 2004 ft 204 kts 304°
2026-05-05 22:28 25.15883 55.53463 2002 ft 201 kts 304°
2026-05-05 22:28 25.16572 55.52201 2002 ft 186 kts 304°
2026-05-05 22:29 25.17223 55.51015 1998 ft 178 kts 306°
2026-05-05 22:29 25.17865 55.49862 2002 ft 176 kts 306°
2026-05-05 22:29 25.18500 55.48704 1870 ft 173 kts 303°
2026-05-05 22:29 25.19096 55.47603 1634 ft 162 kts 305°
2026-05-05 22:30 25.19687 55.46558 1434 ft 160 kts 305°
2026-05-05 22:30 25.20257 55.45509 1236 ft 158 kts 304°
2026-05-05 22:30 25.20822 55.44495 1035 ft 156 kts 304°
2026-05-05 22:30 25.21384 55.43479 848 ft 155 kts 304°
2026-05-05 22:31 25.21925 55.42474 657 ft 151 kts 304°
2026-05-05 22:31 25.22467 55.41501 461 ft 150 kts 305°
2026-05-05 22:31 25.23013 55.40509 269 ft 149 kts 305°
2026-05-05 22:31 25.23557 55.39537 64 ft 149 kts 304°
2026-05-05 22:32 25.24050 55.38667 29 ft 112 kts 302°
2026-05-05 22:32 25.24384 55.38054 30 ft 78 kts 301°
2026-05-05 22:32 25.24586 55.37692 27 ft 42 kts 301°
2026-05-05 22:32 25.24712 55.37466 27 ft 20 kts 302°
2026-05-05 22:33 25.24763 55.37331 28 ft 18 kts 285°
2026-05-05 22:33 25.24784 55.37205 29 ft 11 kts 275°
2026-05-05 22:33 25.24786 55.37138 28 ft 5 kts 253°
2026-05-05 22:33 25.24758 55.37103 28 ft 7 kts 203°
2026-05-05 22:34 25.24716 55.37109 27 ft 7 kts 140°
2026-05-05 22:34 25.24685 55.37152 27 ft 8 kts 122°
2026-05-05 22:34 25.24650 55.37212 27 ft 10 kts 121°
2026-05-05 22:34 25.24611 55.37282 26 ft 12 kts 121°
2026-05-05 22:35 25.24568 55.37360 26 ft 13 kts 121°
2026-05-05 22:35 25.24533 55.37424 26 ft 10 kts 122°
2026-05-05 22:35 25.24496 55.37485 26 ft 10 kts 122°
2026-05-05 22:35 25.24457 55.37555 32 ft 12 kts 121°
2026-05-05 22:36 25.24433 55.37594 30 ft 6 kts 138°
2026-05-05 22:36 25.24396 55.37602 30 ft 7 kts 195°
2026-05-05 22:36 25.24344 55.37575 30 ft 6 kts 210°
2026-05-05 22:36 25.24302 55.37547 29 ft 7 kts 211°
2026-05-05 22:37 25.24274 55.37528 30 ft 5 kts 211°
2026-05-05 22:37 25.24263 55.37521 31 ft 0 kts 211°